FALCON 9 DEB (45798 NORAD) Tracking and Keplerian Element Data

This shows tracking and keplerian element data for the satellite.

Feedback or suggestion? Click here.




ElementValue
Catalog45798
NameFALCON 9 DEB
Epoch Orbit599
Epoch Day201.61315106
Epoch Year2020
RAAN109.6044
Inclination52.9834
Eccentricity0.0014081
Argument of Perigee215.1258
Mean Anonmoly144.8864
Mean Motion16.46747133
Decay Rate0.09201333
L11 45798U 20038BS 20201.61315106 .09201333 12361-4 15608-3 0 9995
L22 45798 52.9834 109.6044 0014081 215.1258 144.8864 16.46747133 5998

Live tracking and technical data element details for FALCON 9 DEB (NORAD 45798). FALCON 9 DEB can be tracked NOW for your location showing map with azimuth and elevation plus other details from your city location.

Track the satellite on the map from your city or location and see movement details for azimuth, elevation, latitude, longitude, range, height, and movement on the map or in text.







IsCatalogInMostPopularTable: catalog: 45798, numindb: 14
Update: records affected: 1



GetName: 45798 FALCON 9 DEB

Hit Count: updated at: Sat, 08 Aug 2020 00:47:55 GMT